Starlink 4032

operational
NORAD ID: 52688 Int'l Des: 2022-053 Owner: SPXS Country: US Constellation: starlink
LEOCIRCULAR

About Starlink 4032

Description loading...

Live Position

Loading 3D Globe...

Upcoming Passes

Altitude History

Altitude vs Time

uPlot chart will show altitude changes over time

Two-Line Element Set

1 52688U 22053AJ 25305.48079706 .00000054 00000-0 21477-4 0 9991
2 52688 53.2180 359.5571 0001375 93.7261 266.3889 15.08836527191760
Epoch: Nov 1, 2025 • Age: 25 hours

Current Status

Altitude 549.3 km
Velocity 7.59 km/s
Sub-Earth Point -29.32°S, 95.96°E
Launch Date May 18, 2022
Age 3.4 years
Type internet

Technical Details

Classification Payload
Mass 297.00 kg
Dry Mass 275.00 kg
Total Mass 297.00 kg
Length 0.20 m
Diameter 2.80 m
Span 9.00 m
Shape Box + pan
Manufacturer SPXS
Bus Type Starlink
Phase Status In Orbit
Owner/State SPXS/US

Large Constellations

Loading constellations...